Time,TemperatureF,DewpointF,PressureIn,WindDirection,WindDirectionDegrees,WindSpeedMPH,WindSpeedGustMPH,Humidity,HourlyPrecipIn,Conditions,Clouds,dailyrainin,SoftwareType,DateUTC
2013-07-31 00:02:00,68.3,67.1,29.96,West,269,0.0,1.0,96,0.00,,---,0.41,VWS V14.01,2013-07-31 05:02:00,
2013-07-31 00:07:00,68.3,67.1,29.96,West,269,0.0,0.0,96,0.00,,---,0.00,VWS V14.01,2013-07-31 05:07:00,
2013-07-31 00:12:00,68.2,67.0,29.96,West,269,0.0,1.0,96,0.00,,---,0.00,VWS V14.01,2013-07-31 05:12:00,
2013-07-31 00:17:00,68.2,67.0,29.96,West,269,0.0,0.0,96,0.00,,---,0.00,VWS V14.01,2013-07-31 05:17:00,
2013-07-31 00:22:00,68.2,67.0,29.96,West,269,0.0,0.0,96,0.00,,---,0.00,VWS V14.01,2013-07-31 05:22:00,
2013-07-31 00:27:00,68.2,67.3,29.96,West,269,0.0,0.0,97,0.00,,---,0.00,VWS V14.01,2013-07-31 05:27:00,
2013-07-31 00:32:00,68.2,67.3,29.96,West,269,0.0,1.0,97,0.00,,---,0.00,VWS V14.01,2013-07-31 05:32:00,
2013-07-31 00:37:00,68.2,67.3,29.95,WSW,248,0.0,0.0,97,0.00,,---,0.00,VWS V14.01,2013-07-31 05:37:00,
2013-07-31 00:42:00,68.1,67.2,29.95,WSW,248,0.0,0.0,97,0.00,,---,0.00,VWS V14.01,2013-07-31 05:42:00,
2013-07-31 00:47:00,68.1,67.2,29.95,WNW,297,0.0,0.0,97,0.00,,---,0.00,VWS V14.01,2013-07-31 05:47:00,
2013-07-31 00:52:00,68.1,67.2,29.95,WNW,297,0.0,0.0,97,0.00,,---,0.00,VWS V14.01,2013-07-31 05:52:00,
2013-07-31 00:57:00,68.1,67.2,29.95,WNW,297,0.0,1.0,97,0.00,,---,0.00,VWS V14.01,2013-07-31 05:57:00,
2013-07-31 01:02:00,68.1,67.2,29.95,WNW,297,0.0,1.0,97,0.00,,---,0.00,VWS V14.01,2013-07-31 06:02:00,
2013-07-31 01:07:00,68.1,67.2,29.95,SW,218,0.0,0.0,97,0.00,,---,0.00,VWS V14.01,2013-07-31 06:07:00,
2013-07-31 01:12:00,68.1,67.2,29.95,SSW,207,0.0,0.0,97,0.00,,---,0.00,VWS V14.01,2013-07-31 06:12:00,
2013-07-31 01:17:00,68.1,67.2,29.95,SSW,209,1.0,1.0,97,0.00,,---,0.00,VWS V14.01,2013-07-31 06:17:00,
2013-07-31 01:22:00,68.1,67.2,29.94,SSW,209,0.0,0.0,97,0.00,,---,0.00,VWS V14.01,2013-07-31 06:22:00,
2013-07-31 01:27:00,68.1,67.2,29.94,SSW,209,0.0,1.0,97,0.00,,---,0.00,VWS V14.01,2013-07-31 06:27:00,
2013-07-31 01:32:00,68.1,67.2,29.94,WSW,252,0.0,1.0,97,0.00,,---,0.00,VWS V14.01,2013-07-31 06:32:00,
2013-07-31 01:37:00,68.1,67.2,29.94,WSW,252,0.0,0.0,97,0.00,,---,0.00,VWS V14.01,2013-07-31 06:37:00,
2013-07-31 01:42:00,68.1,67.2,29.94,WSW,252,0.0,0.0,97,0.00,,---,0.00,VWS V14.01,2013-07-31 06:42:00,
2013-07-31 01:47:00,68.1,67.2,29.94,WSW,252,0.0,1.0,97,0.00,,---,0.00,VWS V14.01,2013-07-31 06:47:00,
2013-07-31 01:52:00,68.1,67.2,29.94,West,263,0.0,0.0,97,0.00,,---,0.00,VWS V14.01,2013-07-31 06:52:00,
2013-07-31 01:57:00,68.1,67.2,29.94,WSW,241,1.0,1.0,97,0.00,,---,0.00,VWS V14.01,2013-07-31 06:57:00,
2013-07-31 02:02:00,68.2,67.3,29.94,WSW,241,0.0,0.0,97,0.00,,---,0.00,VWS V14.01,2013-07-31 07:02:00,
2013-07-31 02:07:00,68.1,67.2,29.94,WSW,238,1.0,1.0,97,0.00,,---,0.00,VWS V14.01,2013-07-31 07:07:00,
2013-07-31 02:12:00,68.1,67.2,29.94,WSW,238,0.0,0.0,97,0.00,,---,0.00,VWS V14.01,2013-07-31 07:12:00,
2013-07-31 02:17:00,68.2,67.3,29.94,WSW,238,0.0,0.0,97,0.00,,---,0.00,VWS V14.01,2013-07-31 07:17:00,
2013-07-31 02:22:00,68.2,67.3,29.94,WSW,238,0.0,0.0,97,0.00,,---,0.00,VWS V14.01,2013-07-31 07:22:00,
2013-07-31 02:27:00,68.2,67.3,29.94,WSW,238,0.0,1.0,97,0.00,,---,0.00,VWS V14.01,2013-07-31 07:27:00,
2013-07-31 02:32:00,68.2,67.3,29.94,WSW,238,1.0,1.0,97,0.00,,---,0.00,VWS V14.01,2013-07-31 07:32:00,
2013-07-31 02:37:00,68.2,67.3,29.94,WSW,238,0.0,0.0,97,0.00,,---,0.00,VWS V14.01,2013-07-31 07:37:00,
2013-07-31 02:42:00,68.2,67.3,29.94,WSW,238,1.0,1.0,97,0.00,,---,0.00,VWS V14.01,2013-07-31 07:42:00,
2013-07-31 02:47:00,68.2,67.3,29.94,WSW,238,0.0,0.0,97,0.00,,---,0.00,VWS V14.01,2013-07-31 07:47:00,
2013-07-31 02:52:00,68.2,67.3,29.94,WSW,238,1.0,1.0,97,0.00,,---,0.00,VWS V14.01,2013-07-31 07:52:00,
2013-07-31 02:57:00,68.2,67.3,29.94,WSW,238,0.0,1.0,97,0.00,,---,0.00,VWS V14.01,2013-07-31 07:57:00,
2013-07-31 03:04:00,68.2,67.3,29.93,WSW,252,2.0,2.0,97,0.00,,---,0.00,VWS V14.01,2013-07-31 08:04:00,
2013-07-31 03:09:00,68.2,67.3,29.93,WSW,252,0.0,1.0,97,0.00,,---,0.00,VWS V14.01,2013-07-31 08:09:00,
2013-07-31 03:14:00,68.2,67.3,29.93,WSW,252,1.0,1.0,97,0.00,,---,0.00,VWS V14.01,2013-07-31 08:14:00,
2013-07-31 03:19:00,68.3,67.4,29.94,WSW,252,1.0,1.0,97,0.00,,---,0.00,VWS V14.01,2013-07-31 08:19:00,
2013-07-31 03:24:00,68.2,67.3,29.94,WSW,252,0.0,0.0,97,0.00,,---,0.00,VWS V14.01,2013-07-31 08:24:00,
2013-07-31 03:29:00,68.2,67.3,29.94,WSW,252,0.0,1.0,97,0.00,,---,0.00,VWS V14.01,2013-07-31 08:29:00,
2013-07-31 03:33:00,68.3,67.4,29.94,WSW,252,0.0,1.0,97,0.00,,---,0.00,VWS V14.01,2013-07-31 08:33:00,
2013-07-31 03:34:00,68.3,67.4,29.94,WSW,252,0.0,1.0,97,0.00,,---,0.00,VWS V14.01,2013-07-31 08:34:00,
2013-07-31 03:39:00,68.3,67.4,29.94,WSW,252,0.0,0.0,97,0.00,,---,0.00,VWS V14.01,2013-07-31 08:39:00,
2013-07-31 03:43:00,68.3,67.4,29.94,WSW,252,0.0,0.0,97,0.00,,---,0.00,VWS V14.01,2013-07-31 08:43:00,
2013-07-31 03:48:00,68.3,67.4,29.94,WSW,252,0.0,0.0,97,0.00,,---,0.00,VWS V14.01,2013-07-31 08:48:00,
2013-07-31 03:53:00,68.3,67.4,29.94,WSW,252,0.0,0.0,97,0.00,,---,0.00,VWS V14.01,2013-07-31 08:53:00,
2013-07-31 03:58:00,68.3,67.4,29.94,WSW,252,0.0,0.0,97,0.00,,---,0.00,VWS V14.01,2013-07-31 08:58:00,
2013-07-31 04:03:00,68.3,67.4,29.93,WSW,252,1.0,2.0,97,0.00,,---,0.00,VWS V14.01,2013-07-31 09:03:00,
2013-07-31 04:08:00,68.3,67.4,29.93,WSW,252,1.0,1.0,97,0.00,,---,0.00,VWS V14.01,2013-07-31 09:08:00,
2013-07-31 04:13:00,68.3,67.4,29.93,WSW,252,0.0,1.0,97,0.00,,---,0.00,VWS V14.01,2013-07-31 09:13:00,
2013-07-31 04:18:00,68.3,67.4,29.93,WSW,252,2.0,2.0,97,0.00,,---,0.00,VWS V14.01,2013-07-31 09:18:00,
2013-07-31 04:23:00,68.3,67.4,29.93,WSW,242,0.0,2.0,97,0.00,,---,0.00,VWS V14.01,2013-07-31 09:23:00,
2013-07-31 04:28:00,68.3,67.4,29.93,WSW,242,0.0,0.0,97,0.00,,---,0.00,VWS V14.01,2013-07-31 09:28:00,
2013-07-31 04:33:00,68.3,67.4,29.93,SSW,204,1.0,2.0,97,0.00,,---,0.00,VWS V14.01,2013-07-31 09:33:00,
2013-07-31 04:38:00,68.3,67.4,29.93,SSW,204,0.0,0.0,97,0.00,,---,0.00,VWS V14.01,2013-07-31 09:38:00,
2013-07-31 04:43:00,68.3,67.4,29.93,SSW,204,0.0,0.0,97,0.00,,---,0.00,VWS V14.01,2013-07-31 09:43:00,
2013-07-31 04:48:00,68.3,67.4,29.93,SSW,204,0.0,1.0,97,0.00,,---,0.00,VWS V14.01,2013-07-31 09:48:00,
2013-07-31 04:53:00,68.3,67.4,29.93,SSW,204,1.0,1.0,97,0.00,,---,0.00,VWS V14.01,2013-07-31 09:53:00,
2013-07-31 04:58:00,68.4,67.5,29.93,SSW,204,0.0,1.0,97,0.00,,---,0.00,VWS V14.01,2013-07-31 09:58:00,
2013-07-31 05:03:00,68.4,67.5,29.93,SSW,204,0.0,1.0,97,0.00,,---,0.00,VWS V14.01,2013-07-31 10:03:00,
2013-07-31 05:08:00,68.4,67.5,29.93,SSW,204,0.0,0.0,97,0.00,,---,0.00,VWS V14.01,2013-07-31 10:08:00,
2013-07-31 05:13:00,68.4,67.5,29.93,SSW,204,0.0,0.0,97,0.00,,---,0.00,VWS V14.01,2013-07-31 10:13:00,
2013-07-31 05:18:00,68.4,67.5,29.93,SSW,204,0.0,0.0,97,0.00,,---,0.00,VWS V14.01,2013-07-31 10:18:00,
2013-07-31 05:23:00,68.4,67.5,29.93,SSW,204,0.0,0.0,97,0.00,,---,0.00,VWS V14.01,2013-07-31 10:23:00,
2013-07-31 05:28:00,68.4,67.5,29.93,SSW,204,0.0,0.0,97,0.00,,---,0.00,VWS V14.01,2013-07-31 10:28:00,
2013-07-31 05:33:00,68.4,67.5,29.94,SSW,204,0.0,1.0,97,0.00,,---,0.00,VWS V14.01,2013-07-31 10:33:00,
2013-07-31 05:38:00,68.4,67.5,29.94,SSW,204,0.0,0.0,97,0.00,,---,0.00,VWS V14.01,2013-07-31 10:38:00,
2013-07-31 05:43:00,68.4,67.5,29.94,SSW,204,0.0,0.0,97,0.00,,---,0.00,VWS V14.01,2013-07-31 10:43:00,
2013-07-31 05:48:00,68.5,67.6,29.94,SSW,204,0.0,0.0,97,0.00,,---,0.00,VWS V14.01,2013-07-31 10:48:00,
2013-07-31 05:53:00,68.5,67.6,29.94,SSW,204,0.0,0.0,97,0.00,,---,0.00,VWS V14.01,2013-07-31 10:53:00,
2013-07-31 05:58:00,68.5,67.6,29.94,SSW,204,0.0,0.0,97,0.00,,---,0.00,VWS V14.01,2013-07-31 10:58:00,
2013-07-31 06:03:00,68.5,67.6,29.94,SSW,204,0.0,1.0,97,0.00,,---,0.00,VWS V14.01,2013-07-31 11:03:00,
2013-07-31 06:08:00,68.5,67.6,29.94,SSW,204,0.0,1.0,97,0.00,,---,0.00,VWS V14.01,2013-07-31 11:08:00,
2013-07-31 06:13:00,68.5,67.6,29.94,SSW,204,0.0,0.0,97,0.00,,---,0.00,VWS V14.01,2013-07-31 11:13:00,
2013-07-31 06:18:00,68.5,67.6,29.94,SSW,204,0.0,0.0,97,0.00,,---,0.00,VWS V14.01,2013-07-31 11:18:00,
2013-07-31 06:23:00,68.6,67.7,29.94,SSW,204,0.0,0.0,97,0.00,,---,0.00,VWS V14.01,2013-07-31 11:23:00,
2013-07-31 06:28:00,68.6,67.7,29.94,SSW,204,0.0,0.0,97,0.00,,---,0.00,VWS V14.01,2013-07-31 11:28:00,
2013-07-31 06:33:00,68.6,67.7,29.94,SSW,204,0.0,0.0,97,0.00,,---,0.00,VWS V14.01,2013-07-31 11:33:00,
2013-07-31 06:38:00,68.6,67.7,29.94,SSW,204,0.0,0.0,97,0.00,,---,0.00,VWS V14.01,2013-07-31 11:38:00,
2013-07-31 06:43:00,68.6,67.7,29.94,SSW,204,0.0,0.0,97,0.00,,---,0.00,VWS V14.01,2013-07-31 11:43:00,
2013-07-31 06:48:00,68.7,67.8,29.94,SSW,204,0.0,0.0,97,0.00,,---,0.00,VWS V14.01,2013-07-31 11:48:00,
2013-07-31 06:53:00,68.7,67.8,29.94,SSW,204,0.0,0.0,97,0.00,,---,0.00,VWS V14.01,2013-07-31 11:53:00,
2013-07-31 06:58:00,68.7,67.8,29.94,SSW,204,0.0,0.0,97,0.00,,---,0.00,VWS V14.01,2013-07-31 11:58:00,
2013-07-31 07:03:00,68.7,67.8,29.94,SSW,204,0.0,0.0,97,0.00,,---,0.00,VWS V14.01,2013-07-31 12:03:00,
2013-07-31 07:08:00,68.7,67.8,29.94,SSW,204,0.0,0.0,97,0.00,,---,0.00,VWS V14.01,2013-07-31 12:08:00,
2013-07-31 07:13:00,68.8,67.9,29.94,SSW,204,0.0,0.0,97,0.00,,---,0.00,VWS V14.01,2013-07-31 12:13:00,
2013-07-31 07:18:00,68.9,68.0,29.94,SSW,204,0.0,0.0,97,0.00,,---,0.00,VWS V14.01,2013-07-31 12:18:00,
2013-07-31 07:23:00,69.0,68.1,29.94,SSW,204,1.0,1.0,97,0.00,,---,0.00,VWS V14.01,2013-07-31 12:23:00,
2013-07-31 07:28:00,69.0,68.1,29.94,SSW,204,0.0,0.0,97,0.00,,---,0.00,VWS V14.01,2013-07-31 12:28:00,
2013-07-31 07:33:00,69.1,68.5,29.94,SSW,204,1.0,1.0,98,0.00,,---,0.00,VWS V14.01,2013-07-31 12:33:00,
2013-07-31 07:38:00,69.2,68.6,29.94,SSW,204,1.0,1.0,98,0.00,,---,0.00,VWS V14.01,2013-07-31 12:38:00,
2013-07-31 07:43:00,69.1,68.5,29.94,SSW,204,0.0,0.0,98,0.00,,---,0.00,VWS V14.01,2013-07-31 12:43:00,
2013-07-31 07:48:00,69.1,68.5,29.94,SSW,204,1.0,1.0,98,0.00,,---,0.00,VWS V14.01,2013-07-31 12:48:00,
2013-07-31 07:53:00,69.2,68.6,29.94,SSW,204,0.0,1.0,98,0.00,,---,0.00,VWS V14.01,2013-07-31 12:53:00,
2013-07-31 07:58:00,69.2,68.6,29.94,SSW,204,0.0,0.0,98,0.00,,---,0.00,VWS V14.01,2013-07-31 12:58:00,
2013-07-31 08:03:00,69.3,68.7,29.94,SSW,204,0.0,0.0,98,0.00,,---,0.00,VWS V14.01,2013-07-31 13:03:00,
2013-07-31 08:08:00,69.3,68.7,29.94,SSW,204,0.0,1.0,98,0.00,,---,0.00,VWS V14.01,2013-07-31 13:08:00,
2013-07-31 08:13:00,69.4,68.8,29.94,SSW,204,1.0,2.0,98,0.00,,---,0.00,VWS V14.01,2013-07-31 13:13:00,
2013-07-31 08:18:00,69.4,68.5,29.94,SSW,204,1.0,1.0,97,0.00,,---,0.00,VWS V14.01,2013-07-31 13:18:00,
2013-07-31 08:23:00,69.5,68.6,29.94,SSW,204,0.0,0.0,97,0.00,,---,0.00,VWS V14.01,2013-07-31 13:23:00,
2013-07-31 08:28:00,69.5,68.6,29.94,SSW,204,0.0,0.0,97,0.00,,---,0.00,VWS V14.01,2013-07-31 13:28:00,
2013-07-31 08:33:00,69.6,68.7,29.94,SSW,204,1.0,1.0,97,0.00,,---,0.00,VWS V14.01,2013-07-31 13:33:00,
2013-07-31 08:38:00,69.7,68.8,29.94,SSW,204,0.0,0.0,97,0.00,,---,0.00,VWS V14.01,2013-07-31 13:38:00,
2013-07-31 08:43:00,69.8,69.2,29.94,SSW,204,0.0,0.0,98,0.00,,---,0.00,VWS V14.01,2013-07-31 13:43:00,
2013-07-31 08:48:00,69.9,69.3,29.94,SSW,204,0.0,0.0,98,0.00,,---,0.00,VWS V14.01,2013-07-31 13:48:00,
2013-07-31 08:53:00,70.0,69.4,29.94,SSW,204,0.0,0.0,98,0.00,,---,0.00,VWS V14.01,2013-07-31 13:53:00,
2013-07-31 08:58:00,70.1,69.5,29.94,SSW,204,0.0,0.0,98,0.00,,---,0.00,VWS V14.01,2013-07-31 13:58:00,
2013-07-31 09:03:00,70.2,69.6,29.94,SSW,204,0.0,0.0,98,0.00,,---,0.00,VWS V14.01,2013-07-31 14:03:00,
2013-07-31 09:08:00,70.2,69.3,29.94,SSW,204,0.0,0.0,97,0.00,,---,0.00,VWS V14.01,2013-07-31 14:08:00,
2013-07-31 09:13:00,70.1,69.2,29.94,SSW,204,0.0,0.0,97,0.00,,---,0.00,VWS V14.01,2013-07-31 14:13:00,
2013-07-31 09:18:00,70.2,69.3,29.94,SSW,204,0.0,0.0,97,0.00,,---,0.00,VWS V14.01,2013-07-31 14:18:00,
2013-07-31 09:23:00,70.3,69.4,29.94,SSW,204,0.0,0.0,97,0.00,,---,0.00,VWS V14.01,2013-07-31 14:23:00,
2013-07-31 09:28:00,70.3,69.4,29.94,SSW,204,0.0,0.0,97,0.00,,---,0.00,VWS V14.01,2013-07-31 14:28:00,
2013-07-31 09:33:00,70.4,69.8,29.94,SSW,204,0.0,0.0,98,0.00,,---,0.00,VWS V14.01,2013-07-31 14:33:00,
2013-07-31 09:38:00,70.4,69.8,29.94,SSW,204,0.0,0.0,98,0.00,,---,0.00,VWS V14.01,2013-07-31 14:38:00,
2013-07-31 09:43:00,70.3,69.4,29.94,South,190,0.0,1.0,97,0.00,,---,0.00,VWS V14.01,2013-07-31 14:43:00,
2013-07-31 09:48:00,70.3,69.4,29.94,South,190,0.0,0.0,97,0.00,,---,0.00,VWS V14.01,2013-07-31 14:48:00,
2013-07-31 09:53:00,70.4,69.5,29.94,South,190,0.0,0.0,97,0.00,,---,0.00,VWS V14.01,2013-07-31 14:53:00,
2013-07-31 09:57:00,70.4,69.5,29.94,South,190,0.0,0.0,97,0.00,,---,0.00,VWS V14.01,2013-07-31 14:57:00,
2013-07-31 10:02:00,70.5,69.6,29.95,South,190,0.0,0.0,97,0.00,,---,0.00,VWS V14.01,2013-07-31 15:02:00,
2013-07-31 10:03:00,70.5,69.6,29.95,South,190,0.0,0.0,97,0.00,,---,0.00,VWS V14.01,2013-07-31 15:03:00,
2013-07-31 10:08:00,70.6,69.7,29.95,South,190,0.0,0.0,97,0.00,,---,0.00,VWS V14.01,2013-07-31 15:08:00,
2013-07-31 10:12:00,70.7,69.8,29.95,South,190,0.0,0.0,97,0.00,,---,0.00,VWS V14.01,2013-07-31 15:12:00,
2013-07-31 10:17:00,70.7,69.8,29.95,South,190,0.0,0.0,97,0.00,,---,0.00,VWS V14.01,2013-07-31 15:17:00,
2013-07-31 10:22:00,70.7,69.8,29.95,South,190,0.0,0.0,97,0.00,,---,0.00,VWS V14.01,2013-07-31 15:22:00,
2013-07-31 10:27:00,70.6,69.7,29.95,South,190,0.0,1.0,97,0.00,,---,0.00,VWS V14.01,2013-07-31 15:27:00,
2013-07-31 10:32:00,70.6,69.4,29.95,South,190,1.0,1.0,96,0.00,,---,0.00,VWS V14.01,2013-07-31 15:32:00,
2013-07-31 10:37:00,70.5,69.3,29.95,South,190,0.0,0.0,96,0.00,,---,0.00,VWS V14.01,2013-07-31 15:37:00,
2013-07-31 10:42:00,70.5,69.3,29.95,South,190,0.0,1.0,96,0.00,,---,0.00,VWS V14.01,2013-07-31 15:42:00,
2013-07-31 10:47:00,70.4,69.2,29.95,South,190,0.0,0.0,96,0.00,,---,0.00,VWS V14.01,2013-07-31 15:47:00,
2013-07-31 10:52:00,70.3,68.8,29.95,South,190,0.0,0.0,95,0.00,,---,0.00,VWS V14.01,2013-07-31 15:52:00,
2013-07-31 10:57:00,70.2,68.7,29.95,South,190,0.0,0.0,95,0.00,,---,0.00,VWS V14.01,2013-07-31 15:57:00,
2013-07-31 11:02:00,70.2,68.7,29.95,South,190,0.0,0.0,95,0.00,,---,0.00,VWS V14.01,2013-07-31 16:02:00,
2013-07-31 11:07:00,70.3,68.8,29.95,South,190,0.0,0.0,95,0.00,,---,0.00,VWS V14.01,2013-07-31 16:07:00,
2013-07-31 11:12:00,70.4,68.9,29.95,South,190,0.0,0.0,95,0.00,,---,0.00,VWS V14.01,2013-07-31 16:12:00,
2013-07-31 11:17:00,70.4,68.9,29.94,South,190,0.0,0.0,95,0.00,,---,0.00,VWS V14.01,2013-07-31 16:17:00,
2013-07-31 11:22:00,70.5,69.0,29.94,South,190,1.0,1.0,95,0.00,,---,0.00,VWS V14.01,2013-07-31 16:22:00,
2013-07-31 11:28:00,70.6,69.1,29.94,South,190,0.0,0.0,95,0.00,,---,0.00,VWS V14.01,2013-07-31 16:28:00,
2013-07-31 11:33:00,70.6,68.8,29.95,South,190,1.0,1.0,94,0.00,,---,0.00,VWS V14.01,2013-07-31 16:33:00,
2013-07-31 11:38:00,70.6,68.8,29.95,South,190,0.0,0.0,94,0.00,,---,0.00,VWS V14.01,2013-07-31 16:38:00,
2013-07-31 11:42:00,70.7,68.9,29.95,South,190,0.0,0.0,94,0.00,,---,0.00,VWS V14.01,2013-07-31 16:42:00,
2013-07-31 11:47:00,70.9,69.4,29.95,South,190,0.0,0.0,95,0.00,,---,0.00,VWS V14.01,2013-07-31 16:47:00,
2013-07-31 11:52:00,71.0,69.2,29.95,South,190,0.0,0.0,94,0.00,,---,0.00,VWS V14.01,2013-07-31 16:52:00,
2013-07-31 11:57:00,71.0,68.9,29.95,South,190,0.0,0.0,93,0.00,,---,0.00,VWS V14.01,2013-07-31 16:57:00,
2013-07-31 12:02:00,71.4,69.6,29.94,South,190,0.0,0.0,94,0.00,,---,0.00,VWS V14.01,2013-07-31 17:02:00,
2013-07-31 12:07:00,72.0,70.2,29.94,South,190,1.0,1.0,94,0.00,,---,0.00,VWS V14.01,2013-07-31 17:07:00,
2013-07-31 12:12:00,72.5,70.4,29.94,SW,234,0.0,1.0,93,0.00,,---,0.00,VWS V14.01,2013-07-31 17:12:00,
2013-07-31 12:17:00,72.8,70.0,29.95,WSW,253,0.0,0.0,91,0.00,,---,0.00,VWS V14.01,2013-07-31 17:17:00,
2013-07-31 12:22:00,72.9,70.1,29.95,West,263,1.0,1.0,91,0.00,,---,0.00,VWS V14.01,2013-07-31 17:22:00,
2013-07-31 12:27:00,72.7,69.3,29.95,South,179,0.0,1.0,89,0.00,,---,0.00,VWS V14.01,2013-07-31 17:27:00,
2013-07-31 12:32:00,72.6,69.5,29.95,South,179,0.0,1.0,90,0.00,,---,0.00,VWS V14.01,2013-07-31 17:32:00,
2013-07-31 12:38:00,72.7,69.6,29.95,South,179,0.0,0.0,90,0.00,,---,0.00,VWS V14.01,2013-07-31 17:38:00,
2013-07-31 12:43:00,72.8,69.7,29.95,South,179,1.0,1.0,90,0.00,,---,0.00,VWS V14.01,2013-07-31 17:43:00,
2013-07-31 12:48:00,73.0,69.6,29.94,South,190,0.0,1.0,89,0.00,,---,0.00,VWS V14.01,2013-07-31 17:48:00,
2013-07-31 12:53:00,73.0,69.2,29.94,WNW,288,1.0,1.0,88,0.00,,---,0.00,VWS V14.01,2013-07-31 17:53:00,
2013-07-31 12:57:00,73.2,69.8,29.94,WNW,288,0.0,1.0,89,0.00,,---,0.00,VWS V14.01,2013-07-31 17:57:00,
2013-07-31 13:02:00,73.2,69.4,29.94,WNW,284,0.0,1.0,88,0.00,,---,0.00,VWS V14.01,2013-07-31 18:02:00,
2013-07-31 13:07:00,73.4,70.0,29.94,WNW,284,0.0,1.0,89,0.00,,---,0.00,VWS V14.01,2013-07-31 18:07:00,
2013-07-31 13:12:00,74.0,70.9,29.94,WSW,258,5.0,5.0,90,0.00,,---,0.00,VWS V14.01,2013-07-31 18:12:00,
2013-07-31 13:18:00,75.3,72.2,29.93,WSW,245,1.0,2.0,90,0.00,,---,0.00,VWS V14.01,2013-07-31 18:18:00,
2013-07-31 13:23:00,76.0,71.5,29.93,SSW,212,0.0,1.0,86,0.00,,---,0.00,VWS V14.01,2013-07-31 18:23:00,
2013-07-31 13:27:00,76.2,71.4,29.93,WNW,301,1.0,2.0,85,0.00,,---,0.00,VWS V14.01,2013-07-31 18:27:00,
2013-07-31 13:32:00,76.3,70.4,29.93,WNW,296,0.0,0.0,82,0.00,,---,0.00,VWS V14.01,2013-07-31 18:32:00,
2013-07-31 13:37:00,76.5,71.3,29.93,SW,225,2.0,2.0,84,0.00,,---,0.00,VWS V14.01,2013-07-31 18:37:00,
2013-07-31 13:42:00,76.5,71.3,29.93,SSW,213,0.0,0.0,84,0.00,,---,0.00,VWS V14.01,2013-07-31 18:42:00,
2013-07-31 13:47:00,76.6,71.4,29.93,SSW,212,4.0,4.0,84,0.00,,---,0.00,VWS V14.01,2013-07-31 18:47:00,
2013-07-31 13:52:00,76.7,70.8,29.93,WSW,253,0.0,0.0,82,0.00,,---,0.00,VWS V14.01,2013-07-31 18:52:00,
2013-07-31 13:57:00,76.6,70.7,29.93,WSW,256,0.0,2.0,82,0.00,,---,0.00,VWS V14.01,2013-07-31 18:57:00,
2013-07-31 14:02:00,76.3,70.1,29.93,West,259,1.0,2.0,81,0.00,,---,0.00,VWS V14.01,2013-07-31 19:02:00,
2013-07-31 14:07:00,76.1,70.2,29.93,West,259,0.0,1.0,82,0.00,,---,0.00,VWS V14.01,2013-07-31 19:07:00,
2013-07-31 14:12:00,76.0,70.5,29.93,West,259,1.0,1.0,83,0.00,,---,0.00,VWS V14.01,2013-07-31 19:12:00,
2013-07-31 14:18:00,75.7,70.2,29.93,West,259,0.0,1.0,83,0.00,,---,0.00,VWS V14.01,2013-07-31 19:18:00,
2013-07-31 14:23:00,75.5,70.3,29.93,West,259,0.0,0.0,84,0.00,,---,0.00,VWS V14.01,2013-07-31 19:23:00,
2013-07-31 14:28:00,75.4,69.9,29.93,West,259,1.0,1.0,83,0.00,,---,0.00,VWS V14.01,2013-07-31 19:28:00,
2013-07-31 14:32:00,75.1,69.2,29.93,West,259,0.0,1.0,82,0.00,,---,0.00,VWS V14.01,2013-07-31 19:32:00,
2013-07-31 14:38:00,74.8,69.3,29.93,West,259,0.0,0.0,83,0.00,,---,0.00,VWS V14.01,2013-07-31 19:38:00,
2013-07-31 14:43:00,74.4,68.9,29.93,West,259,0.0,0.0,83,0.00,,---,0.00,VWS V14.01,2013-07-31 19:43:00,
2013-07-31 14:47:00,74.2,69.1,29.93,West,259,0.0,1.0,84,0.00,,---,0.00,VWS V14.01,2013-07-31 19:47:00,
2013-07-31 14:52:00,74.2,68.7,29.93,West,259,0.0,1.0,83,0.00,,---,0.00,VWS V14.01,2013-07-31 19:52:00,
2013-07-31 14:57:00,74.2,69.4,29.93,West,259,0.0,0.0,85,0.00,,---,0.00,VWS V14.01,2013-07-31 19:57:00,
2013-07-31 15:02:00,74.4,69.9,29.93,West,259,0.0,0.0,86,0.00,,---,0.00,VWS V14.01,2013-07-31 20:02:00,
2013-07-31 15:07:00,74.6,69.4,29.93,West,259,1.0,1.0,84,0.00,,---,0.00,VWS V14.01,2013-07-31 20:07:00,
2013-07-31 15:12:00,74.8,68.9,29.93,West,259,1.0,1.0,82,0.00,,---,0.00,VWS V14.01,2013-07-31 20:12:00,
2013-07-31 15:17:00,74.9,69.4,29.93,WSW,240,0.0,0.0,83,0.00,,---,0.00,VWS V14.01,2013-07-31 20:17:00,
2013-07-31 15:22:00,75.0,69.8,29.93,West,265,0.0,1.0,84,0.00,,---,0.00,VWS V14.01,2013-07-31 20:22:00,
2013-07-31 15:27:00,75.1,69.6,29.93,West,265,0.0,1.0,83,0.00,,---,0.00,VWS V14.01,2013-07-31 20:27:00,
2013-07-31 15:32:00,75.3,70.8,29.93,WSW,248,1.0,1.0,86,0.00,,---,0.00,VWS V14.01,2013-07-31 20:32:00,
2013-07-31 15:37:00,75.5,69.6,29.93,WSW,248,0.0,1.0,82,0.00,,---,0.00,VWS V14.01,2013-07-31 20:37:00,
2013-07-31 15:42:00,75.6,69.7,29.93,North,355,0.0,0.0,82,0.00,,---,0.00,VWS V14.01,2013-07-31 20:42:00,
2013-07-31 15:47:00,75.6,69.4,29.93,NNW,342,0.0,2.0,81,0.00,,---,0.00,VWS V14.01,2013-07-31 20:47:00,
2013-07-31 15:52:00,75.5,69.6,29.93,WNW,292,0.0,2.0,82,0.00,,---,0.00,VWS V14.01,2013-07-31 20:52:00,
2013-07-31 15:57:00,75.3,69.4,29.93,NW,308,0.0,0.0,82,0.00,,---,0.00,VWS V14.01,2013-07-31 20:57:00,
2013-07-31 16:02:00,75.1,69.2,29.94,NW,308,0.0,0.0,82,0.00,,---,0.00,VWS V14.01,2013-07-31 21:02:00,
2013-07-31 16:07:00,74.9,69.0,29.94,NW,308,0.0,0.0,82,0.00,,---,0.00,VWS V14.01,2013-07-31 21:07:00,
2013-07-31 16:12:00,74.9,69.0,29.94,NNW,327,2.0,2.0,82,0.00,,---,0.00,VWS V14.01,2013-07-31 21:12:00,
2013-07-31 16:17:00,74.7,68.5,29.93,NNW,327,0.0,1.0,81,0.00,,---,0.00,VWS V14.01,2013-07-31 21:17:00,
2013-07-31 16:22:00,74.8,68.9,29.93,NNW,327,0.0,1.0,82,0.00,,---,0.00,VWS V14.01,2013-07-31 21:22:00,
2013-07-31 16:27:00,74.9,68.7,29.93,NNW,327,1.0,1.0,81,0.00,,---,0.00,VWS V14.01,2013-07-31 21:27:00,
2013-07-31 16:32:00,75.0,68.8,29.92,NNW,327,0.0,0.0,81,0.00,,---,0.00,VWS V14.01,2013-07-31 21:32:00,
2013-07-31 16:37:00,75.1,69.2,29.92,NNW,327,0.0,0.0,82,0.00,,---,0.00,VWS V14.01,2013-07-31 21:37:00,
2013-07-31 16:42:00,75.1,68.5,29.92,NNW,327,1.0,1.0,80,0.00,,---,0.00,VWS V14.01,2013-07-31 21:42:00,
2013-07-31 16:47:00,75.1,68.9,29.92,NNW,327,0.0,1.0,81,0.00,,---,0.00,VWS V14.01,2013-07-31 21:47:00,
2013-07-31 16:53:00,75.2,69.3,29.92,NNW,327,0.0,0.0,82,0.00,,---,0.00,VWS V14.01,2013-07-31 21:53:00,
2013-07-31 16:58:00,75.3,69.8,29.92,NNW,327,1.0,1.0,83,0.00,,---,0.00,VWS V14.01,2013-07-31 21:58:00,
2013-07-31 17:02:00,75.4,68.4,29.92,WNW,297,1.0,2.0,79,0.00,,---,0.00,VWS V14.01,2013-07-31 22:02:00,
2013-07-31 17:07:00,75.3,68.7,29.92,WNW,297,1.0,1.0,80,0.00,,---,0.00,VWS V14.01,2013-07-31 22:07:00,
2013-07-31 17:12:00,75.2,69.0,29.92,WNW,297,0.0,0.0,81,0.00,,---,0.00,VWS V14.01,2013-07-31 22:12:00,
2013-07-31 17:17:00,75.1,68.5,29.92,ESE,110,1.0,2.0,80,0.00,,---,0.00,VWS V14.01,2013-07-31 22:17:00,
2013-07-31 17:22:00,75.0,68.4,29.92,ESE,110,1.0,1.0,80,0.00,,---,0.00,VWS V14.01,2013-07-31 22:22:00,
2013-07-31 17:27:00,74.9,68.7,29.92,ESE,117,0.0,1.0,81,0.00,,---,0.00,VWS V14.01,2013-07-31 22:27:00,
2013-07-31 17:32:00,74.9,68.7,29.92,ESE,117,0.0,0.0,81,0.00,,---,0.00,VWS V14.01,2013-07-31 22:32:00,
2013-07-31 17:37:00,74.7,68.1,29.92,North,350,0.0,0.0,80,0.00,,---,0.00,VWS V14.01,2013-07-31 22:37:00,
2013-07-31 17:42:00,74.6,68.4,29.92,North,350,0.0,0.0,81,0.00,,---,0.00,VWS V14.01,2013-07-31 22:42:00,
2013-07-31 17:47:00,74.5,68.3,29.91,North,350,0.0,0.0,81,0.00,,---,0.00,VWS V14.01,2013-07-31 22:47:00,
2013-07-31 17:52:00,74.5,68.7,29.91,North,350,0.0,0.0,82,0.00,,---,0.00,VWS V14.01,2013-07-31 22:52:00,
2013-07-31 17:57:00,74.5,68.3,29.91,North,350,0.0,0.0,81,0.00,,---,0.00,VWS V14.01,2013-07-31 22:57:00,
2013-07-31 18:02:00,74.5,69.0,29.91,North,350,0.0,0.0,83,0.00,,---,0.00,VWS V14.01,2013-07-31 23:02:00,
2013-07-31 18:07:00,74.5,68.3,29.91,North,350,0.0,0.0,81,0.00,,---,0.00,VWS V14.01,2013-07-31 23:07:00,
2013-07-31 18:12:00,74.6,68.4,29.91,North,350,0.0,1.0,81,0.00,,---,0.00,VWS V14.01,2013-07-31 23:12:00,
2013-07-31 18:17:00,74.6,68.4,29.91,North,350,0.0,1.0,81,0.00,,---,0.00,VWS V14.01,2013-07-31 23:17:00,
2013-07-31 18:22:00,74.6,68.8,29.91,North,350,0.0,0.0,82,0.00,,---,0.00,VWS V14.01,2013-07-31 23:22:00,
2013-07-31 18:27:00,74.4,67.8,29.91,North,350,0.0,0.0,80,0.00,,---,0.00,VWS V14.01,2013-07-31 23:27:00,
2013-07-31 18:32:00,74.4,68.6,29.90,North,350,0.0,0.0,82,0.00,,---,0.00,VWS V14.01,2013-07-31 23:32:00,
2013-07-31 18:37:00,74.5,69.0,29.90,SW,232,0.0,0.0,83,0.00,,---,0.00,VWS V14.01,2013-07-31 23:37:00,
2013-07-31 18:42:00,74.4,68.2,29.90,SW,232,0.0,0.0,81,0.00,,---,0.00,VWS V14.01,2013-07-31 23:42:00,
2013-07-31 18:47:00,74.3,68.4,29.90,SW,232,0.0,0.0,82,0.00,,---,0.00,VWS V14.01,2013-07-31 23:47:00,
2013-07-31 18:52:00,74.3,68.4,29.90,SW,232,0.0,0.0,82,0.00,,---,0.00,VWS V14.01,2013-07-31 23:52:00,
2013-07-31 18:57:00,74.2,68.4,29.90,SW,232,1.0,1.0,82,0.00,,---,0.00,VWS V14.01,2013-07-31 23:57:00,
2013-07-31 19:02:00,74.2,68.7,29.90,SW,232,0.0,0.0,83,0.00,,---,0.00,VWS V14.01,2013-08-01 00:02:00,
2013-07-31 19:07:00,74.1,68.6,29.90,SW,232,0.0,0.0,83,0.00,,---,0.00,VWS V14.01,2013-08-01 00:07:00,
2013-07-31 19:12:00,74.0,68.5,29.90,SW,232,1.0,1.0,83,0.00,,---,0.00,VWS V14.01,2013-08-01 00:12:00,
2013-07-31 19:17:00,74.0,68.9,29.89,SW,232,0.0,0.0,84,0.00,,---,0.00,VWS V14.01,2013-08-01 00:17:00,
2013-07-31 19:22:00,73.8,68.7,29.89,SW,219,0.0,0.0,84,0.00,,---,0.00,VWS V14.01,2013-08-01 00:22:00,
2013-07-31 19:27:00,73.7,68.2,29.89,SW,219,0.0,0.0,83,0.00,,---,0.00,VWS V14.01,2013-08-01 00:27:00,
2013-07-31 19:32:00,73.6,68.1,29.89,SW,219,0.0,0.0,83,0.00,,---,0.00,VWS V14.01,2013-08-01 00:32:00,
2013-07-31 19:37:00,73.5,68.4,29.89,SW,219,0.0,0.0,84,0.00,,---,0.00,VWS V14.01,2013-08-01 00:37:00,
2013-07-31 19:42:00,73.4,69.0,29.89,SW,219,0.0,0.0,86,0.00,,---,0.00,VWS V14.01,2013-08-01 00:42:00,
2013-07-31 19:48:00,73.2,68.4,29.89,SW,219,0.0,0.0,85,0.00,,---,0.00,VWS V14.01,2013-08-01 00:48:00,
2013-07-31 19:53:00,73.0,67.9,29.89,SW,219,0.0,0.0,84,0.00,,---,0.00,VWS V14.01,2013-08-01 00:53:00,
2013-07-31 19:57:00,72.8,68.0,29.89,SW,219,0.0,0.0,85,0.00,,---,0.00,VWS V14.01,2013-08-01 00:57:00,
2013-07-31 20:02:00,72.7,67.9,29.90,SW,219,0.0,0.0,85,0.00,,---,0.00,VWS V14.01,2013-08-01 01:02:00,
2013-07-31 20:07:00,72.5,68.1,29.90,SW,219,0.0,0.0,86,0.00,,---,0.00,VWS V14.01,2013-08-01 01:07:00,
2013-07-31 20:12:00,72.3,67.9,29.90,SW,219,0.0,0.0,86,0.00,,---,0.00,VWS V14.01,2013-08-01 01:12:00,
2013-07-31 20:17:00,72.1,67.7,29.90,SW,219,0.0,0.0,86,0.00,,---,0.00,VWS V14.01,2013-08-01 01:17:00,
2013-07-31 20:22:00,71.9,67.5,29.90,SW,219,0.0,0.0,86,0.00,,---,0.00,VWS V14.01,2013-08-01 01:22:00,
2013-07-31 20:27:00,71.7,67.6,29.90,SW,219,0.0,1.0,87,0.00,,---,0.00,VWS V14.01,2013-08-01 01:27:00,
2013-07-31 20:32:00,71.5,67.4,29.91,SW,219,0.0,0.0,87,0.00,,---,0.00,VWS V14.01,2013-08-01 01:32:00,
2013-07-31 20:37:00,71.2,67.1,29.91,SW,219,0.0,0.0,87,0.00,,---,0.00,VWS V14.01,2013-08-01 01:37:00,
2013-07-31 20:42:00,71.0,67.3,29.91,SW,219,0.0,0.0,88,0.00,,---,0.00,VWS V14.01,2013-08-01 01:42:00,
2013-07-31 20:47:00,70.8,67.1,29.91,SW,219,0.0,0.0,88,0.00,,---,0.00,VWS V14.01,2013-08-01 01:47:00,
2013-07-31 20:52:00,70.6,67.2,29.91,SW,219,0.0,0.0,89,0.00,,---,0.00,VWS V14.01,2013-08-01 01:52:00,
2013-07-31 20:57:00,70.2,66.8,29.91,SW,219,0.0,0.0,89,0.00,,---,0.00,VWS V14.01,2013-08-01 01:57:00,
2013-07-31 21:02:00,69.9,66.5,29.91,SW,219,0.0,0.0,89,0.00,,---,0.00,VWS V14.01,2013-08-01 02:02:00,
2013-07-31 21:07:00,69.6,66.5,29.91,SW,219,0.0,0.0,90,0.00,,---,0.00,VWS V14.01,2013-08-01 02:07:00,
2013-07-31 21:12:00,69.4,66.7,29.91,SW,219,0.0,0.0,91,0.00,,---,0.00,VWS V14.01,2013-08-01 02:12:00,
2013-07-31 21:17:00,69.1,66.4,29.91,SW,219,0.0,0.0,91,0.00,,---,0.00,VWS V14.01,2013-08-01 02:17:00,
2013-07-31 21:22:00,68.9,66.5,29.91,SW,219,0.0,0.0,92,0.00,,---,0.00,VWS V14.01,2013-08-01 02:22:00,
2013-07-31 21:27:00,68.7,66.3,29.91,SW,219,0.0,0.0,92,0.00,,---,0.00,VWS V14.01,2013-08-01 02:27:00,
2013-07-31 21:32:00,68.5,66.4,29.92,SW,219,0.0,0.0,93,0.00,,---,0.00,VWS V14.01,2013-08-01 02:32:00,
2013-07-31 21:37:00,68.3,66.2,29.92,SW,219,0.0,0.0,93,0.00,,---,0.00,VWS V14.01,2013-08-01 02:37:00,
2013-07-31 21:43:00,68.2,66.4,29.92,SW,219,0.0,0.0,94,0.00,,---,0.00,VWS V14.01,2013-08-01 02:43:00,
2013-07-31 21:48:00,68.1,66.3,29.92,SW,219,0.0,0.0,94,0.00,,---,0.00,VWS V14.01,2013-08-01 02:48:00,
2013-07-31 21:52:00,67.9,66.1,29.92,SW,219,0.0,0.0,94,0.00,,---,0.00,VWS V14.01,2013-08-01 02:52:00,
2013-07-31 21:57:00,67.8,66.0,29.92,SW,219,0.0,0.0,94,0.00,,---,0.00,VWS V14.01,2013-08-01 02:57:00,
2013-07-31 22:02:00,67.7,65.9,29.93,SW,219,0.0,0.0,94,0.00,,---,0.00,VWS V14.01,2013-08-01 03:02:00,
2013-07-31 22:07:00,67.6,65.8,29.93,SW,219,0.0,0.0,94,0.00,,---,0.00,VWS V14.01,2013-08-01 03:07:00,
2013-07-31 22:12:00,67.6,66.1,29.93,SW,219,0.0,0.0,95,0.00,,---,0.00,VWS V14.01,2013-08-01 03:12:00,
2013-07-31 22:17:00,67.5,66.0,29.92,SW,219,0.0,0.0,95,0.00,,---,0.00,VWS V14.01,2013-08-01 03:17:00,
2013-07-31 22:22:00,67.5,66.0,29.92,SW,219,0.0,0.0,95,0.00,,---,0.00,VWS V14.01,2013-08-01 03:22:00,
2013-07-31 22:27:00,67.4,65.9,29.92,SW,219,0.0,0.0,95,0.00,,---,0.00,VWS V14.01,2013-08-01 03:27:00,
2013-07-31 22:32:00,67.4,65.9,29.93,SW,219,0.0,0.0,95,0.00,,---,0.00,VWS V14.01,2013-08-01 03:32:00,
2013-07-31 22:37:00,67.3,65.8,29.93,SW,219,0.0,0.0,95,0.00,,---,0.00,VWS V14.01,2013-08-01 03:37:00,
2013-07-31 22:42:00,67.2,65.7,29.93,SW,219,0.0,0.0,95,0.00,,---,0.00,VWS V14.01,2013-08-01 03:42:00,
2013-07-31 22:47:00,67.1,65.6,29.92,SW,219,0.0,0.0,95,0.00,,---,0.00,VWS V14.01,2013-08-01 03:47:00,
2013-07-31 22:52:00,67.1,65.6,29.92,SW,219,0.0,0.0,95,0.00,,---,0.00,VWS V14.01,2013-08-01 03:52:00,
2013-07-31 22:57:00,67.1,65.9,29.92,SW,219,0.0,0.0,96,0.00,,---,0.00,VWS V14.01,2013-08-01 03:57:00,
2013-07-31 23:01:00,67.1,65.9,29.92,SW,219,0.0,0.0,96,0.00,,---,0.00,VWS V14.01,2013-08-01 04:01:00,
2013-07-31 23:02:00,67.1,65.9,29.92,SW,219,0.0,0.0,96,0.00,,---,0.00,VWS V14.01,2013-08-01 04:02:00,
2013-07-31 23:07:00,67.1,65.9,29.92,SW,219,0.0,0.0,96,0.00,,---,0.00,VWS V14.01,2013-08-01 04:07:00,
2013-07-31 23:12:00,67.1,65.9,29.92,SW,219,0.0,0.0,96,0.00,,---,0.00,VWS V14.01,2013-08-01 04:12:00,
2013-07-31 23:17:00,67.1,65.9,29.92,SW,219,0.0,0.0,96,0.00,,---,0.00,VWS V14.01,2013-08-01 04:17:00,
2013-07-31 23:22:00,67.0,65.5,29.92,SW,219,0.0,0.0,95,0.00,,---,0.00,VWS V14.01,2013-08-01 04:22:00,
2013-07-31 23:27:00,66.9,65.4,29.92,SW,219,0.0,1.0,95,0.00,,---,0.00,VWS V14.01,2013-08-01 04:27:00,
2013-07-31 23:35:00,66.9,65.7,29.92,SW,219,0.0,0.0,96,0.00,,---,0.00,VWS V14.01,2013-08-01 04:35:00,
2013-07-31 23:40:00,66.8,65.3,29.92,SW,219,0.0,0.0,95,0.00,,---,0.00,VWS V14.01,2013-08-01 04:40:00,
2013-07-31 23:45:00,66.8,65.3,29.92,SW,219,0.0,0.0,95,0.00,,---,0.00,VWS V14.01,2013-08-01 04:45:00,
2013-07-31 23:50:00,66.8,65.3,29.93,SW,219,0.0,0.0,95,0.00,,---,0.00,VWS V14.01,2013-08-01 04:50:00,
2013-07-31 23:55:00,66.8,65.6,29.93,SW,219,0.0,0.0,96,0.00,,---,0.00,VWS V14.01,2013-08-01 04:55:00,